Weather in Medvedskoe

Russia / Kurgan Oblast     55°14′58″N   62°59′15″E
temp.,
°C
wind,
m/s
gust,
m/s
humid.,
%
clouds,
%
prec.,
mm/h
press.,
hPa
HPBL,
m
25 july, sun
sun2523:00+18e1180100 0.0 100613
02:00+16w118593 0.0 100611
05:00+14wnw338015 0.0 100742
08:00+19nw56618 0.0 1008382
11:00+21nw785616 0.0 1009894
14:00+20nw776876 1.9 10111168
17:00+18nnw796210 3.0 10131094
20:00+17nnw24630 0.0 101491
26 july, mon
mon2623:00+16wnw336123 0.0 101551
02:00+11nw48655 0.0 1017126
05:00+9nw36725 0.0 1018114
08:00+14nnw465817 0.0 1019425
11:00+18nnw564356 0.0 10191435
14:00+18nw5738100 0.0 10192073
17:00+17wnw464499 0.0 1018929
20:00+16wnw475318 0.0 1018251
27 july, tue
tue2723:00+12wnw46625 0.0 101878
02:00+11wsw356986 0.0 101770
05:00+13wsw3863100 0.0 1016226
08:00+14w4963100 0.0 1016332
11:00+20w684820 0.0 10151176
14:00+18nw61064100 0.2 1014688
17:00+21wnw695091 0.3 10121771
20:00+16wnw4107619 0.7 1012291
28 july, wed
wed2823:00+13wsw369199 0.7 101296
02:00+12wsw4893100 0.1 1011165
05:00+12w2496100 0.3 101092
08:00+14w248819 0.3 1010336
11:00+17nnw667154 1.4 10101075
14:00+20nnw674434 0.3 10102002
17:00+20nnw66357 0.3 10112121
20:00+17wnw335049 0.0 101129
29 july, thu
thu2923:00+13wnw3459100 0.0 101261
02:00+15wnw225096 0.0 101228
05:00+12sw466067 0.0 101280
08:00+16wsw595272 0.0 1012405
11:00+20wsw674097 0.0 10111500
14:00+22wsw683582 0.0 10102473
17:00+15w4974100 0.3 1011406
20:00+15ssw367635 0.3 1010123